FW6164 Weather Reports


time (UTC)temp
F
wind
direction
speed
knots
gust
knots
rain 1hr
in
rain 24hr
in
rain mn
in
humidity
%
barometer
mb
20260508182904 48 346 1.7 2.6 0.00 0.04 0.03 69 1019.1
20260508181904 48 7 1.7 4.3 0.00 0.04 0.03 69 1019.0
20260508181405 48 348 2.6 7.8 0.00 0.04 0.03 71 1018.8
20260508180404 48 323 1.7 4.3 0.00 0.04 0.03 75 1018.6
20260508175404 48 324 0.9 2.6 0.00 0.04 0.03 76 1018.3
20260508174904 47 338 0.9 1.7 0.00 0.04 0.03 74 1018.3
20260508174404 48 323 1.7 2.6 0.00 0.04 0.03 73 1018.2
20260508173904 48 324 2.6 4.3 0.00 0.04 0.03 69 1018.2
20260508172904 49 344 2.6 5.2 0.00 0.04 0.03 68 1018.1
20260508172404 49 342 0.9 7.0 0.00 0.04 0.03 66 1018.1
20260508171904 51 5 2.6 10.4 0.00 0.04 0.03 64 1018.0
20260508171403 51 334 1.7 7.0 0.00 0.04 0.03 63 1017.9
20260508170904 52 297 2.6 8.7 0.00 0.04 0.03 61 1017.8
20260508170404 52 308 1.7 2.6 0.00 0.04 0.03 62 1017.7
20260508165904 52 323 0.9 4.3 0.00 0.04 0.03 59 1017.6
20260508165404 53 352 1.7 4.3 0.00 0.04 0.03 58 1017.5
20260508164904 53 315 1.7 8.7 0.00 0.04 0.03 57 1017.3
20260508164404 53 255 1.7 5.2 0.00 0.04 0.03 58 1017.3
20260508163904 53 279 0.9 4.3 0.00 0.04 0.03 58 1017.2
20260508163404 53 348 1.7 5.2 0.00 0.04 0.03 58 1017.2
20260508162903 53 297 0.9 2.6 0.00 0.04 0.03 61 1017.1
20260508162403 53 1 1.7 6.1 0.00 0.04 0.03 61 1017.0
20260508161904 52 302 0.9 4.3 0.00 0.04 0.03 63 1017.0
20260508161404 53 314 2.6 8.7 0.00 0.04 0.03 61 1016.8
20260508160904 52 303 1.7 8.7 0.00 0.04 0.03 61 1016.7
20260508160404 52 345 1.7 5.2 0.00 0.04 0.03 62 1016.7
20260508155904 53 279 0.9 5.2 0.00 0.04 0.03 59 1016.9
20260508155404 51 269 1.7 2.6 0.00 0.04 0.03 62 1016.8
20260508154904 51 315 1.7 2.6 0.00 0.04 0.03 65 1016.8
20260508154404 51 335 1.7 5.2 0.00 0.04 0.03 62 1016.7
20260508153904 52 0 1.7 8.7 0.00 0.05 0.03 61 1016.6
20260508153404 52 350 2.6 6.1 0.00 0.05 0.03 60 1016.6
20260508152904 52 339 1.7 7.0 0.00 0.05 0.03 59 1016.5
20260508152404 52 351 0.9 2.6 0.00 0.05 0.03 58 1016.5
20260508151905 52 319 1.7 8.7 0.00 0.07 0.03 60 1016.3
20260508151404 52 319 1.7 7.0 0.00 0.09 0.03 60 1016.3
20260508150903 54 345 2.6 7.0 0.00 0.18 0.03 58 1016.2
20260508150404 54 335 2.6 5.2 0.00 0.18 0.03 58 1016.2
20260508145905 54 285 2.6 5.2 0.00 0.19 0.03 56 1016.1
20260508145403 53 268 1.7 4.3 0.00 0.19 0.03 57 1016.1
20260508144904 52 321 0.9 10.4 0.00 0.19 0.03 62 1016.0
20260508144403 53 313 1.7 6.1 0.00 0.19 0.03 62 1016.0
20260508143404 53 316 1.7 4.3 0.00 0.19 0.03 61 1015.7
20260508142404 53 318 2.6 7.0 0.00 0.19 0.03 61 1015.8
20260508141903 53 285 1.7 5.2 0.00 0.19 0.03 62 1015.7
20260508141403 53 296 1.7 7.0 0.00 0.19 0.03 60 1015.7
20260508140404 53 331 1.7 7.8 0.00 0.19 0.03 62 1015.5
20260508135903 53 267 1.7 4.3 0.00 0.19 0.03 59 1015.4
20260508135403 52 299 1.7 4.3 0.00 0.19 0.03 61 1015.3
20260508134904 53 310 1.7 7.0 0.00 0.19 0.03 59 1015.3
20260508133904 53 250 1.7 6.1 0.00 0.19 0.03 56 1015.0
20260508132905 53 306 0.9 6.1 0.00 0.19 0.03 62 1014.9
20260508132404 52 286 2.6 7.0 0.00 0.19 0.03 62 1014.8
20260508131904 52 281 0.9 2.6 0.00 0.19 0.03 66 1014.8
20260508131404 52 273 0.9 4.3 0.00 0.19 0.03 64 1014.8
20260508130404 53 334 1.7 6.1 0.00 0.19 0.03 63 1014.6
20260508125404 53 352 1.7 4.3 0.00 0.19 0.03 61 1014.5
20260508124903 52 229 0.9 2.6 0.00 0.19 0.03 63 1014.4
20260508124404 51 353 0.9 4.3 0.00 0.19 0.03 64 1014.3
20260508123903 51 349 1.7 5.2 0.00 0.19 0.03 64 1014.3
20260508122904 51 344 1.7 5.2 0.00 0.19 0.03 67 1014.2
20260508122403 51 344 1.7 5.2 0.00 0.19 0.03 66 1014.1
20260508121904 52 241 1.7 7.8 0.00 0.19 0.03 66 1014.1
20260508121404 53 259 0.9 4.3 0.00 0.19 0.03 64 1013.9
20260508120403 52 271 0.9 2.6 0.00 0.19 0.03 67 1013.9
20260508115904 51 271 1.7 7.0 0.00 0.19 0.03 66 1013.7
20260508115404 51 340 1.7 2.6 0.00 0.19 0.03 67 1013.6
20260508114903 51 272 0.9 2.6 0.00 0.19 0.03 67 1013.6
20260508114404 51 255 1.7 4.3 0.00 0.19 0.03 64 1013.4
20260508113904 52 264 0.9 5.2 0.00 0.19 0.03 68 1013.4
20260508113404 52 278 0.9 2.6 0.00 0.19 0.03 70 1013.2
20260508112904 52 289 1.7 5.2 0.00 0.19 0.03 65 1013.1
20260508112404 52 301 1.7 6.1 0.00 0.19 0.03 66 1012.8
20260508111903 50 284 1.7 6.1 0.00 0.19 0.03 69 1012.9
20260508111404 50 351 1.7 6.1 0.00 0.19 0.03 68 1012.7
20260508110903 50 242 0.0 1.7 0.00 0.19 0.03 71 1012.5
20260508110404 49 252 0.9 2.6 0.00 0.19 0.03 72 1012.6
20260508105404 53 299 0.9 2.6 0.00 0.19 0.03 69 1012.2
20260508104904 51 297 1.7 2.6 0.00 0.19 0.03 69 1012.1
20260508104404 50 269 0.9 2.6 0.00 0.19 0.03 71 1012.2
20260508103903 50 253 1.7 2.6 0.00 0.19 0.03 71 1012.2
20260508103404 50 352 1.7 5.2 0.00 0.19 0.03 70 1012.1
20260508102903 51 288 0.9 7.8 0.00 0.19 0.03 70 1012.0
20260508102404 50 289 0.9 2.6 0.00 0.19 0.03 73 1011.9
20260508101404 50 322 1.7 6.1 0.00 0.19 0.03 69 1011.7
20260508095904 52 235 1.7 6.1 0.00 0.19 0.03 69 1011.5
20260508095404 52 256 2.6 6.1 0.00 0.19 0.03 70 1011.4
20260508094903 50 354 1.7 6.1 0.00 0.19 0.03 70 1011.3
20260508094404 50 266 1.7 4.3 0.00 0.19 0.03 72 1011.2
20260508093904 50 271 1.7 7.8 0.00 0.19 0.03 73 1011.1
20260508093404 49 264 0.9 5.2 0.00 0.19 0.03 78 1011.1
20260508092904 49 273 0.9 2.6 0.00 0.19 0.03 79 1011.0
20260508092404 49 269 0.9 5.2 0.00 0.19 0.03 78 1010.9
20260508091904 49 265 0.9 2.6 0.00 0.19 0.03 81 1010.7
20260508091404 49 328 0.9 5.2 0.00 0.19 0.03 81 1010.7
20260508090903 49 299 0.0 0.0 0.00 0.19 0.03 77 1010.7
20260508090404 50 320 0.9 2.6 0.00 0.19 0.03 75 1010.8
20260508085904 51 278 1.7 4.3 0.01 0.19 0.03 71 1010.6
20260508085403 52 269 0.9 2.6 0.01 0.19 0.03 70 1010.3
20260508084404 52 314 0.9 1.7 0.01 0.19 0.03 70 1010.2
20260508083903 51 317 1.7 7.0 0.01 0.19 0.03 71 1010.1
20260508083404 50 288 0.9 6.1 0.01 0.19 0.03 76 1010.1
20260508082904 50 274 0.9 2.6 0.01 0.19 0.03 78 1009.9
20260508082403 49 319 0.9 2.6 0.01 0.19 0.03 79 1009.8
20260508081904 50 265 0.9 6.1 0.01 0.19 0.03 78 1009.8
20260508081404 50 241 0.9 2.6 0.01 0.19 0.03 80 1009.7
20260508080904 49 226 0.0 2.6 0.01 0.19 0.03 82 1009.6
20260508080403 49 272 0.0 2.6 0.01 0.19 0.03 83 1009.4
20260508075904 48 276 0.0 0.9 0.00 0.18 0.02 81 1009.4
20260508075404 49 316 0.0 0.9 0.00 0.18 0.02 81 1009.2
20260508074903 49 278 0.0 2.6 0.00 0.18 0.02 82 1009.2
20260508074405 49 272 0.9 2.6 0.00 0.18 0.02 81 1008.8
20260508073904 48 309 0.0 1.7 0.00 0.18 0.02 83 1008.7
20260508073403 48 300 0.9 2.6 0.00 0.18 0.02 83 1008.7
20260508072904 49 289 0.9 2.6 0.00 0.18 0.02 84 1008.6
20260508072404 48 281 1.7 2.6 0.00 0.18 0.02 84 1008.5
20260508071904 48 301 1.7 2.6 0.00 0.18 0.02 85 1008.4
20260508071404 48 298 0.0 2.6 0.00 0.18 0.02 87 1008.4
20260508070904 47 348 0.9 2.6 0.00 0.18 0.02 87 1008.3
20260508070404 47 280 0.9 2.6 0.00 0.18 0.02 87 1008.3
20260508065904 47 314 0.0 1.7 0.00 0.18 0.02 87 1008.3
20260508065404 47 330 0.9 1.7 0.00 0.18 0.02 86 1008.2
20260508064905 47 346 0.9 4.3 0.00 0.18 0.02 86 1008.2
20260508064404 48 263 1.7 7.0 0.00 0.18 0.02 86 1008.0
20260508063904 48 310 1.7 4.3 0.00 0.18 0.02 87 1007.8
20260508063404 47 331 1.7 2.6 0.00 0.18 0.02 87 1007.7
20260508062903 47 299 0.9 1.7 0.00 0.18 0.02 87 1007.6
20260508062404 47 280 1.7 2.6 0.00 0.18 0.02 87 1007.4
20260508060904 46 313 0.0 2.6 0.00 0.18 0.02 88 1007.4
20260508060404 46 355 0.0 0.9 0.00 0.18 0.02 88 1007.2
20260508055404 46 260 0.9 1.7 0.00 0.18 0.02 89 1007.0
20260508054904 46 266 0.9 1.7 0.00 0.18 0.02 88 1007.1
20260508054404 46 183 0.9 2.6 0.00 0.18 0.02 88 1006.8
20260508053904 46 177 0.9 2.6 0.00 0.18 0.02 89 1006.8
20260508053403 46 298 0.9 2.6 0.00 0.18 0.02 88 1006.8
20260508052904 45 222 0.9 1.7 0.00 0.18 0.02 88 1006.7
20260508052404 45 192 0.9 1.7 0.00 0.18 0.02 87 1006.6
20260508051904 46 196 1.7 5.2 0.00 0.18 0.02 87 1006.6
20260508051404 45 183 0.0 2.6 0.00 0.18 0.02 87 1006.7
20260508050904 45 186 0.0 0.9 0.00 0.18 0.02 87 1006.5
20260508050404 45 190 0.9 1.7 0.00 0.18 0.02 87 1006.5
20260508045904 46 198 0.0 2.6 0.00 0.18 0.02 87 1006.5
20260508045403 46 188 0.0 2.6 0.00 0.18 0.02 87 1006.5
20260508044904 46 184 0.9 4.3 0.00 0.18 0.02 87 1006.4
20260508044404 46 200 0.9 1.7 0.00 0.18 0.02 87 1006.4
20260508043904 46 186 0.9 1.7 0.00 0.18 0.02 87 1006.3
20260508042904 45 183 0.9 4.3 0.00 0.18 0.02 87 1006.3
20260508041904 45 167 0.0 5.2 0.01 0.18 0.02 87 1006.2
20260508041404 45 166 1.7 2.6 0.01 0.18 0.02 87 1006.2
20260508040905 45 161 0.9 2.6 0.01 0.18 0.02 87 1006.1
20260508040405 45 169 0.9 2.6 0.01 0.18 0.02 88 1006.2
20260508035904 45 170 0.0 2.6 0.01 0.18 0.02 88 1006.1
20260508034904 45 247 0.9 1.7 0.01 0.18 0.02 88 1005.9
20260508032903 46 243 0.9 1.7 0.01 0.18 0.02 87 1005.9
20260508032404 46 238 0.0 1.7 0.01 0.18 0.02 87 1005.9
20260508031904 46 237 0.9 2.6 0.00 0.17 0.01 87 1005.9
20260508031403 46 259 0.0 1.7 0.00 0.17 0.01 87 1005.8
20260508030904 46 259 0.0 0.9 0.00 0.17 0.01 87 1005.8
20260508030404 46 249 0.0 6.1 0.00 0.17 0.01 86 1005.7
20260508025403 45 168 0.9 5.2 0.01 0.17 0.01 87 1005.6
20260508024404 45 217 0.9 2.6 0.01 0.17 0.01 87 1005.3
20260508023404 45 175 1.7 5.2 0.01 0.17 0.01 88 1005.3
20260508022404 46 264 0.9 1.7 0.01 0.17 0.01 88 1005.3
20260508021904 46 251 0.9 2.6 0.01 0.17 0.01 88 1005.3
20260508021404 46 280 0.9 6.1 0.01 0.17 0.01 87 1005.3
20260508020904 46 176 1.7 4.3 0.01 0.17 0.01 86 1005.4
20260508020404 46 146 0.9 5.2 0.01 0.17 0.01 86 1005.3
20260508015904 46 48 1.7 7.0 0.00 0.16 0.00 85 1005.2
20260508014904 46 184 0.0 2.6 0.00 0.16 0.00 85 1005.1
20260508014404 46 174 1.7 6.1 0.00 0.16 0.00 85 1005.0
20260508013904 46 169 1.7 10.4 0.00 0.16 0.00 85 1004.9
20260508013403 46 175 2.6 5.2 0.00 0.16 0.00 86 1004.9
20260508012904 46 174 1.7 7.0 0.00 0.16 0.00 86 1004.9
20260508012403 46 233 0.9 2.6 0.00 0.16 0.00 86 1005.0
20260508011904 46 178 0.9 6.1 0.00 0.16 0.00 86 1004.9
20260508011404 46 165 1.7 7.0 0.00 0.16 0.00 86 1004.8
20260508010904 46 176 0.9 5.2 0.00 0.16 0.00 86 1004.8
20260508010404 46 219 0.9 2.6 0.00 0.16 0.00 85 1004.8
20260508005904 46 285 0.9 6.1 0.00 0.16 0.00 85 1004.7
20260508005404 46 170 1.7 7.0 0.00 0.16 0.00 85 1004.7
20260508004904 46 346 1.7 6.1 0.00 0.16 0.00 85 1004.5
20260508003903 46 280 1.7 6.1 0.00 0.16 0.00 85 1004.3
20260508002904 46 182 1.7 7.8 0.00 0.16 0.00 86 1004.2
20260508002405 46 197 2.6 6.1 0.00 0.16 0.00 86 1004.1
20260508000904 46 176 1.7 6.1 0.00 0.16 0.00 86 1004.2
20260508000405 46 178 1.7 5.2 0.00 0.16 0.00 86 1004.2
20260507235904 46 171 2.6 6.1 0.00 0.16 0.00 86 1004.1
20260507235405 46 178 1.7 6.1 0.01 0.16 0.00 86 1004.1
20260507234404 46 203 1.7 5.2 0.01 0.16 0.00 87 1004.0
20260507233904 46 173 1.7 7.0 0.01 0.16 0.00 87 1004.1
20260507233403 46 168 4.3 8.7 0.01 0.16 0.00 87 1004.1
20260507232904 46 173 2.6 5.2 0.01 0.16 0.00 87 1004.0
20260507231904 46 154 2.6 6.1 0.01 0.16 0.00 87 1004.2
20260507231404 46 221 2.6 11.3 0.01 0.16 0.00 87 1004.1
20260507230904 46 251 1.7 8.7 0.01 0.16 0.00 87 1004.1
20260507230404 46 0 0.9 7.8 0.01 0.16 0.00 86 1004.1
20260507225904 47 159 1.7 5.2 0.01 0.16 0.16 85 1004.2
20260507225404 47 294 1.7 5.2 0.01 0.16 0.16 84 1004.4
20260507224404 47 187 1.7 10.4 0.00 0.15 0.15 82 1004.0
20260507223904 47 167 1.7 7.0 0.00 0.15 0.15 82 1004.0
20260507223404 46 217 1.7 6.1 0.00 0.15 0.15 82 1004.1
20260507222904 46 169 0.9 6.1 0.00 0.15 0.15 83 1004.0
20260507222404 47 197 1.7 7.0 0.00 0.15 0.15 83 1004.1
20260507221904 47 155 1.7 7.0 0.00 0.15 0.15 84 1004.0
20260507220904 47 282 1.7 5.2 0.00 0.15 0.15 84 1004.0
20260507220404 47 163 1.7 7.8 0.00 0.15 0.15 84 1004.0
20260507215904 47 164 2.6 8.7 0.00 0.15 0.15 84 1004.0
20260507215404 48 230 1.7 7.0 0.00 0.15 0.15 84 1004.0
20260507214903 48 198 1.7 6.1 0.00 0.15 0.15 83 1004.1
20260507213905 48 191 2.6 6.1 0.00 0.15 0.15 81 1004.1
20260507213404 48 183 2.6 7.0 0.00 0.15 0.15 81 1004.0
20260507212905 48 197 2.6 7.0 0.00 0.15 0.15 82 1003.9
20260507211904 48 295 0.9 2.6 0.00 0.15 0.15 82 1004.0
20260507210904 48 175 4.3 7.0 0.00 0.15 0.15 82 1004.0
20260507210404 47 166 1.7 7.0 0.00 0.15 0.15 82 1004.1
20260507205904 48 219 1.7 7.0 0.00 0.15 0.15 83 1004.0
20260507205404 48 177 2.6 7.0 0.00 0.15 0.15 83 1004.0
20260507204905 48 195 4.3 11.3 0.00 0.15 0.15 83 1004.0
20260507204404 48 173 1.7 8.7 0.00 0.15 0.15 83 1004.0
20260507203904 48 174 1.7 7.8 0.00 0.15 0.15 83 1003.9
20260507203404 48 198 0.9 2.6 0.00 0.15 0.15 84 1003.9
20260507202904 48 161 1.7 5.2 0.00 0.15 0.15 84 1003.9
20260507202404 48 256 0.9 4.3 0.00 0.15 0.15 83 1003.9
20260507201904 48 245 0.9 2.6 0.00 0.15 0.15 82 1003.9
20260507201404 49 276 0.0 1.7 0.00 0.15 0.15 81 1003.9
20260507200904 49 165 1.7 7.8 0.00 0.15 0.15 80 1003.9
20260507200403 49 184 1.7 5.2 0.00 0.15 0.15 80 1003.7
20260507195904 49 164 2.6 10.4 0.00 0.15 0.15 79 1003.7
20260507195404 49 176 2.6 7.8 0.00 0.15 0.15 78 1003.8
20260507194903 49 173 3.5 7.8 0.00 0.15 0.15 78 1003.7
20260507194403 49 179 2.6 7.8 0.00 0.15 0.15 78 1003.8
20260507193904 49 158 2.6 7.8 0.00 0.15 0.15 79 1003.7
20260507193404 49 168 2.6 10.4 0.00 0.15 0.15 79 1003.7
20260507192904 49 179 2.6 7.0 0.00 0.15 0.15 80 1003.7
20260507192405 49 170 3.5 6.1 0.00 0.15 0.15 80 1003.7
20260507191904 49 182 1.7 8.7 0.00 0.15 0.15 79 1003.7
20260507190404 49 195 3.5 11.3 0.00 0.15 0.15 82 1003.6
20260507185904 49 144 2.6 10.4 0.00 0.15 0.15 83 1003.7
20260507184903 50 181 2.6 8.7 0.00 0.15 0.15 84 1003.6
20260507184403 49 180 2.6 13.0 0.00 0.15 0.15 83 1003.7